| time (UTC) | temp F | wind direction | speed MPH | gust MPH | rain 1hr in | rain 24hr in | rain mn in | humidity % | barometer mb |
| 20260506193004 | 75 | 309 | 1.0 | 9.0 | 0.00 | 0.00 | 0.00 | 30 | 1016.9 |
| 20260506191502 | 75 | 290 | 2.0 | 7.0 | 0.00 | 0.00 | 0.00 | 30 | 1017.0 |
| 20260506190100 | 74 | 215 | 3.0 | 8.0 | 0.00 | 0.00 | 0.00 | 29 | 1017.3 |
| 20260506184558 | 73 | 270 | 2.0 | 11.0 | 0.00 | 0.00 | 0.00 | 33 | 1017.4 |
| 20260506183059 | 73 | 355 | 4.0 | 9.0 | 0.00 | 0.00 | 0.00 | 31 | 1017.4 |
| 20260506181557 | 73 | 338 | 4.0 | 8.0 | 0.00 | 0.00 | 0.00 | 32 | 1017.3 |
| 20260506180104 | 73 | 329 | 2.0 | 6.0 | 0.00 | 0.00 | 0.00 | 33 | 1017.4 |
| 20260506174551 | 72 | 153 | 0.0 | 4.0 | 0.00 | 0.00 | 0.00 | 37 | 1017.5 |
| 20260506173109 | 71 | 279 | 1.0 | 6.0 | 0.00 | 0.00 | 0.00 | 38 | 1017.6 |
| 20260506171552 | 70 | 341 | 0.0 | 4.0 | 0.00 | 0.00 | 0.00 | 40 | 1017.7 |
| 20260506170044 | 68 | 281 | 1.0 | 3.0 | 0.00 | 0.00 | 0.00 | 44 | 1017.8 |
| 20260506164543 | 66 | 65 | 0.0 | 3.0 | 0.00 | 0.00 | 0.00 | 48 | 1018.1 |
| 20260506163046 | 64 | 325 | 0.0 | 5.0 | 0.00 | 0.00 | 0.00 | 51 | 1018.3 |
| 20260506161547 | 62 | 109 | 0.0 | 2.0 | 0.00 | 0.00 | 0.00 | 53 | 1018.3 |
| 20260506160031 | 60 | 57 | 1.0 | 4.0 | 0.00 | 0.00 | 0.00 | 54 | 1018.4 |
| 20260506154529 | 59 | 83 | 0.0 | 3.0 | 0.00 | 0.00 | 0.00 | 54 | 1018.5 |
| 20260506153025 | 58 | 98 | 1.0 | 2.0 | 0.00 | 0.00 | 0.00 | 55 | 1018.6 |
| 20260506151521 | 56 | 118 | 1.0 | 2.0 | 0.00 | 0.00 | 0.00 | 58 | 1018.7 |
| 20260506150023 | 55 | 69 | 0.0 | 4.0 | 0.00 | 0.00 | 0.00 | 62 | 1018.5 |
| 20260506144514 | 54 | 102 | 2.0 | 5.0 | 0.00 | 0.00 | 0.00 | 65 | 1018.3 |
| 20260506143010 | 52 | 25 | 0.0 | 3.0 | 0.00 | 0.00 | 0.00 | 67 | 1018.3 |
| 20260506141509 | 50 | 111 | 1.0 | 3.0 | 0.00 | 0.00 | 0.00 | 72 | 1018.1 |
| 20260506140005 | 49 | 73 | 1.0 | 3.0 | 0.00 | 0.00 | 0.00 | 73 | 1017.9 |
| 20260506134512 | 47 | 92 | 1.0 | 3.0 | 0.00 | 0.00 | 0.00 | 75 | 1017.7 |
| 20260506133002 | 45 | 49 | 0.0 | 2.0 | 0.00 | 0.00 | 0.00 | 78 | 1017.6 |
| 20260506131503 | 44 | 169 | 0.0 | 2.0 | 0.00 | 0.00 | 0.00 | 79 | 1017.6 |
| 20260506130059 | 44 | 73 | 0.0 | 4.0 | 0.00 | 0.00 | 0.00 | 79 | 1017.5 |
| 20260506124603 | 44 | 96 | 1.0 | 3.0 | 0.00 | 0.00 | 0.00 | 79 | 1017.4 |
| 20260506123057 | 44 | 86 | 0.0 | 2.0 | 0.00 | 0.00 | 0.00 | 79 | 1017.4 |
| 20260506121605 | 44 | 110 | 1.0 | 3.0 | 0.00 | 0.00 | 0.00 | 78 | 1017.4 |
| 20260506120053 | 45 | 146 | 0.0 | 2.0 | 0.00 | 0.00 | 0.00 | 75 | 1017.3 |
| 20260506114553 | 46 | 105 | 1.0 | 5.0 | 0.00 | 0.00 | 0.00 | 76 | 1017.2 |
| 20260506113049 | 45 | 88 | 1.0 | 4.0 | 0.00 | 0.00 | 0.00 | 78 | 1016.9 |
| 20260506111559 | 46 | 111 | 1.0 | 5.0 | 0.00 | 0.00 | 0.00 | 73 | 1016.8 |
| 20260506110045 | 46 | 82 | 1.0 | 3.0 | 0.00 | 0.00 | 0.00 | 76 | 1016.7 |
| 20260506104542 | 46 | 99 | 0.0 | 2.0 | 0.00 | 0.00 | 0.00 | 75 | 1016.6 |
| 20260506103039 | 47 | 130 | 1.0 | 2.0 | 0.00 | 0.00 | 0.00 | 73 | 1016.5 |
| 20260506101537 | 47 | 96 | 1.0 | 4.0 | 0.00 | 0.00 | 0.00 | 74 | 1016.4 |
| 20260506100037 | 48 | 117 | 1.0 | 3.0 | 0.00 | 0.00 | 0.00 | 72 | 1016.3 |
| 20260506094534 | 47 | 89 | 0.0 | 2.0 | 0.00 | 0.00 | 0.00 | 71 | 1016.3 |
| 20260506093030 | 48 | 133 | 0.0 | 2.0 | 0.00 | 0.00 | 0.00 | 71 | 1016.2 |
| 20260506091529 | 49 | 130 | 0.0 | 0.0 | 0.00 | 0.00 | 0.00 | 67 | 1016.2 |
| 20260506090027 | 50 | 86 | 0.0 | 6.0 | 0.00 | 0.00 | 0.00 | 68 | 1016.0 |
| 20260506084528 | 49 | 127 | 0.0 | 2.0 | 0.00 | 0.00 | 0.00 | 70 | 1015.9 |
| 20260506083024 | 49 | 123 | 0.0 | 2.0 | 0.00 | 0.00 | 0.00 | 69 | 1015.9 |
| 20260506081528 | 49 | 73 | 1.0 | 2.0 | 0.00 | 0.00 | 0.00 | 70 | 1015.7 |
| 20260506073019 | 49 | 104 | 1.0 | 2.0 | 0.00 | 0.00 | 0.00 | 70 | 1015.4 |
| 20260506071516 | 50 | 103 | 1.0 | 3.0 | 0.00 | 0.00 | 0.00 | 68 | 1015.1 |
| 20260506061511 | 53 | 114 | 1.0 | 4.0 | 0.00 | 0.00 | 0.00 | 61 | 1014.4 |
| 20260506044601 | 55 | 119 | 1.0 | 2.0 | 0.00 | 0.00 | 0.00 | 58 | 1013.3 |
| 20260506043059 | 58 | 93 | 1.0 | 3.0 | 0.00 | 0.00 | 0.00 | 54 | 1013.1 |
| 20260506041606 | 59 | 78 | 1.0 | 3.0 | 0.00 | 0.00 | 0.00 | 50 | 1012.9 |
| 20260506040059 | 61 | 58 | 0.0 | 3.0 | 0.00 | 0.00 | 0.00 | 49 | 1012.7 |
| 20260506034600 | 64 | 74 | 1.0 | 3.0 | 0.00 | 0.00 | 0.00 | 45 | 1012.4 |
| 20260506033056 | 67 | 92 | 0.0 | 2.0 | 0.00 | 0.00 | 0.00 | 38 | 1012.2 |
| 20260506031557 | 68 | 102 | 0.0 | 2.0 | 0.00 | 0.00 | 0.00 | 36 | 1012.0 |
| 20260506030057 | 70 | 101 | 0.0 | 2.0 | 0.00 | 0.00 | 0.00 | 35 | 1011.8 |
| 20260506024601 | 74 | 92 | 0.0 | 3.0 | 0.00 | 0.00 | 0.00 | 30 | 1011.5 |
| 20260506023056 | 75 | 76 | 1.0 | 6.0 | 0.00 | 0.00 | 0.00 | 28 | 1011.3 |
| 20260506021553 | 76 | 314 | 1.0 | 7.0 | 0.00 | 0.00 | 0.00 | 27 | 1011.2 |
| 20260506020107 | 77 | 76 | 1.0 | 9.0 | 0.00 | 0.00 | 0.00 | 27 | 1011.0 |
| 20260506014608 | 78 | 9 | 1.0 | 6.0 | 0.00 | 0.00 | 0.00 | 28 | 1011.0 |
| 20260506013051 | 79 | 149 | 2.0 | 9.0 | 0.00 | 0.00 | 0.00 | 26 | 1010.9 |
| 20260506011614 | 79 | 24 | 3.0 | 8.0 | 0.00 | 0.00 | 0.00 | 26 | 1010.8 |
| 20260506010050 | 79 | 355 | 3.0 | 7.0 | 0.00 | 0.00 | 0.00 | 25 | 1010.7 |
| 20260506004601 | 80 | 9 | 3.0 | 9.0 | 0.00 | 0.00 | 0.00 | 25 | 1010.7 |
| 20260506003049 | 78 | 61 | 1.0 | 9.0 | 0.00 | 0.00 | 0.00 | 26 | 1010.6 |
| 20260506001548 | 79 | 342 | 4.0 | 8.0 | 0.00 | 0.00 | 0.00 | 25 | 1010.6 |
| 20260506000113 | 80 | 333 | 2.0 | 9.0 | 0.00 | 0.00 | 0.00 | 26 | 1010.6 |
| 20260505234551 | 79 | 315 | 7.0 | 12.0 | 0.00 | 0.00 | 0.00 | 27 | 1010.6 |
| 20260505233045 | 77 | 327 | 5.0 | 10.0 | 0.00 | 0.00 | 0.00 | 29 | 1010.8 |
| 20260505231548 | 78 | 344 | 5.0 | 9.0 | 0.00 | 0.00 | 0.00 | 28 | 1010.7 |
| 20260505230101 | 78 | 52 | 3.0 | 7.0 | 0.00 | 0.00 | 0.00 | 29 | 1010.7 |
| 20260505224545 | 79 | 15 | 5.0 | 11.0 | 0.00 | 0.00 | 0.00 | 28 | 1010.7 |
| 20260505223043 | 78 | 303 | 4.0 | 11.0 | 0.00 | 0.00 | 0.00 | 27 | 1010.7 |
| 20260505221549 | 80 | 325 | 4.0 | 10.0 | 0.00 | 0.00 | 0.00 | 26 | 1010.8 |
| 20260505220044 | 80 | 321 | 3.0 | 12.0 | 0.00 | 0.00 | 0.00 | 26 | 1010.8 |
| 20260505214542 | 80 | 318 | 7.0 | 13.0 | 0.00 | 0.00 | 0.00 | 27 | 1011.0 |
| 20260505213040 | 80 | 343 | 2.0 | 11.0 | 0.00 | 0.00 | 0.00 | 28 | 1011.0 |
| 20260505211541 | 79 | 329 | 4.0 | 14.0 | 0.00 | 0.00 | 0.00 | 26 | 1011.0 |
| 20260505210038 | 79 | 321 | 4.0 | 14.0 | 0.00 | 0.00 | 0.00 | 28 | 1010.9 |
| 20260505204545 | 78 | 175 | 2.0 | 10.0 | 0.00 | 0.00 | 0.00 | 33 | 1010.9 |
| 20260505203037 | 77 | 340 | 4.0 | 11.0 | 0.00 | 0.00 | 0.00 | 36 | 1011.0 |
| 20260505201533 | 77 | 330 | 4.0 | 11.0 | 0.00 | 0.00 | 0.00 | 36 | 1011.2 |
| 20260505200031 | 76 | 290 | 5.0 | 13.0 | 0.00 | 0.00 | 0.00 | 39 | 1011.3 |
| 20260505194534 | 76 | 342 | 3.0 | 8.0 | 0.00 | 0.00 | 0.00 | 39 | 1011.5 |